Simultaneous Nadir Overpasses (SNOs) Predictions

Prediction of SNOs between GOES-16 and NOAA-20 Satellite Orbit:

Table of predicted SNOs for the next 14.0 days since TLE Epoch: 5/2/2025
Index Date Time (GOES-16) GOES-16 Lat,Lon NOAA-20 Lat,Lon Distance(km) Time Diff (sec)
1 05/03/2025 07:21:31 -0.03, -86.81 0.45, -89.06 256.29 80
2 05/04/2025 07:00:08 -0.03, -87.32 -0.64, -84.55 314.98 80
3 05/05/2025 19:24:49 0.02, -88.12 -0.35, -89.90 202.96 80
4 05/06/2025 19:03:27 0.03, -88.63 0.74, -85.39 368.94 80
5 05/08/2025 07:27:58 -0.02, -89.41 0.29, -90.70 146.88 80
6 05/09/2025 07:06:37 -0.02, -89.93 -0.86, -86.20 425.19 80
7 05/10/2025 19:31:17 0.02, -90.74 -0.17, -91.54 91.86 80
8 05/11/2025 19:09:56 0.02, -91.25 0.99, -87.04 480.40 80
9 05/13/2025 07:34:27 -0.02, -92.04 0.04, -92.35 35.10 80
10 05/15/2025 19:35:05 0.02, -93.36 0.05, -93.18 19.90 80
